FW6296 Weather Reports


Display with metric or nautical units.
time (UTC)temp
F
wind
direction
speed
MPH
gust
MPH
rain 1hr
in
rain 24hr
in
rain mn
in
humidity
%
barometer
mb
20260509132058 55 290 2.0 5.0 0.00 0.00 0.00 91 1005.4
20260509131018 54 291 1.0 5.0 0.00 0.00 0.00 92 1005.5
20260509130017 54 277 1.0 4.0 0.00 0.00 0.00 94 1005.4
20260509125017 53 281 1.0 4.0 0.00 0.00 0.00 95 1005.3
20260509124018 52 291 1.0 4.0 0.00 0.00 0.00 98 1005.5
20260509123027 51 275 1.0 2.0 0.00 0.00 0.00 99 1005.5
20260509122027 50 221 1.0 3.0 0.00 0.00 0.00 100 1005.5
20260509121049 50 291 1.0 2.0 0.00 0.00 0.00 99 1005.4
20260509120018 50 291 1.0 7.0 0.00 0.00 0.00 99 1005.4
20260509115028 49 290 1.0 3.0 0.00 0.00 0.00 99 1004.9
20260509114108 49 206 0.0 1.0 0.00 0.00 0.00 99 1004.6
20260509113028 49 329 0.0 2.0 0.00 0.00 0.00 99 1004.4
20260509112028 49 285 1.0 4.0 0.00 0.00 0.00 99 1004.5
20260509111029 49 188 0.0 2.0 0.00 0.00 0.00 99 1004.6
20260509110049 49 169 0.0 1.0 0.00 0.01 0.00 99 1004.6
20260509105028 49 178 0.0 3.0 0.00 0.01 0.00 99 1004.7
20260509104029 49 272 1.0 2.0 0.00 0.01 0.00 99 1004.9
20260509103029 49 15 0.0 2.0 0.00 0.01 0.00 99 1004.8
20260509102029 49 300 0.0 2.0 0.00 0.01 0.00 99 1004.9
20260509101029 49 303 0.0 2.0 0.00 0.01 0.00 99 1005.1
20260509100030 49 188 0.0 1.0 0.00 0.01 0.00 100 1005.1
20260509095030 49 88 0.0 2.0 0.00 0.01 0.00 100 1005.1
20260509094030 48 54 0.0 3.0 0.00 0.01 0.00 100 1005.2
20260509093030 48 331 0.0 1.0 0.00 0.01 0.00 99 1005.3
20260509092016 48 0.0 0.0 0.00 0.01 0.00 99 1005.3
20260509091015 48 0.0 0.0 0.00 0.01 0.00 99 1005.3
20260509090016 49 0.0 0.0 0.00 0.01 0.00 99 1005.3
20260509085016 49 0.0 0.0 0.00 0.01 0.00 98 1005.4
20260509084016 49 107 0.0 1.0 0.00 0.01 0.00 98 1005.3
20260509083016 50 0.0 0.0 0.00 0.01 0.00 98 1005.3
20260509082016 50 347 0.0 1.0 0.00 0.01 0.00 98 1005.2
20260509081036 50 0.0 0.0 0.00 0.01 0.00 98 1005.3
20260509080017 50 0.0 0.0 0.00 0.01 0.00 98 1005.4
20260509075016 50 0.0 0.0 0.00 0.01 0.00 97 1005.4
20260509074016 51 284 0.0 2.0 0.00 0.01 0.00 97 1005.4
20260509073016 51 311 0.0 1.0 0.00 0.01 0.00 96 1005.6
20260509072016 51 305 0.0 1.0 0.00 0.01 0.00 96 1005.7
20260509071017 51 304 0.0 1.0 0.00 0.01 0.00 95 1005.7
20260509070017 51 328 0.0 1.0 0.00 0.01 0.00 95 1005.8
20260509065017 52 314 1.0 2.0 0.00 0.01 0.00 94 1006.0
20260509064017 52 0.0 0.0 0.00 0.01 0.00 93 1006.0
20260509063017 52 320 0.0 3.0 0.00 0.01 0.00 93 1006.0
20260509062017 52 0.0 0.0 0.00 0.01 0.00 93 1006.1
20260509061018 52 0.0 0.0 0.00 0.01 0.00 92 1006.3
20260509060018 53 310 1.0 3.0 0.00 0.01 0.00 91 1006.5
20260509055018 53 263 0.0 2.0 0.00 0.01 0.00 90 1006.5
20260509054018 53 311 1.0 2.0 0.00 0.01 0.00 90 1006.5
20260509053019 53 298 1.0 2.0 0.00 0.01 0.00 90 1006.4
20260509052018 54 312 0.0 1.0 0.00 0.01 0.00 89 1006.5
20260509051019 54 317 0.0 2.0 0.00 0.01 0.00 89 1006.5
20260509050059 54 249 0.0 2.0 0.00 0.01 0.00 89 1006.5
20260509045019 54 0.0 0.0 0.00 0.01 0.01 89 1006.6
20260509044019 54 323 0.0 1.0 0.00 0.01 0.01 89 1006.7
20260509043019 54 275 0.0 2.0 0.00 0.01 0.01 89 1006.6
20260509042020 55 109 0.0 3.0 0.00 0.01 0.01 88 1006.6
20260509041040 55 279 0.0 2.0 0.00 0.01 0.01 87 1006.8
20260509040040 55 250 0.0 3.0 0.00 0.01 0.01 86 1006.9
20260509035022 55 256 0.0 2.0 0.00 0.01 0.01 85 1006.9
20260509034019 56 150 0.0 3.0 0.00 0.01 0.01 84 1007.0
20260509033036 56 303 0.0 2.0 0.00 0.01 0.01 83 1006.9
20260509032017 56 307 0.0 2.0 0.00 0.01 0.01 82 1006.9
20260509031016 57 269 1.0 3.0 0.00 0.01 0.01 80 1006.9
20260509030017 57 266 0.0 1.0 0.00 0.01 0.01 78 1006.9
20260509025017 58 299 0.0 3.0 0.00 0.01 0.01 77 1006.9
20260509024017 58 279 0.0 3.0 0.00 0.01 0.01 75 1007.0
20260509023038 58 294 1.0 2.0 0.00 0.01 0.01 74 1007.0
20260509022017 59 264 1.0 3.0 0.00 0.01 0.01 74 1007.0
20260509021017 59 299 1.0 3.0 0.00 0.01 0.01 74 1006.9
20260509020018 59 291 1.0 4.0 0.00 0.01 0.01 73 1006.8
20260509015018 60 271 1.0 4.0 0.00 0.01 0.01 73 1006.6
20260509014018 60 295 1.0 4.0 0.00 0.01 0.01 73 1006.5
20260509013015 60 251 1.0 5.0 0.00 0.01 0.01 72 1006.5
20260509012016 61 287 2.0 7.0 0.00 0.01 0.01 71 1006.4
20260509011016 61 248 0.0 3.0 0.00 0.01 0.01 68 1006.5
20260509010016 62 254 0.0 3.0 0.00 0.01 0.01 67 1006.4
20260509005016 62 302 0.0 2.0 0.00 0.01 0.01 65 1006.5
20260509004037 63 270 0.0 3.0 0.00 0.01 0.01 62 1006.4
20260509003016 64 293 1.0 3.0 0.00 0.01 0.01 59 1006.4
20260509002017 64 291 1.0 4.0 0.00 0.01 0.01 59 1006.3
20260509001017 65 300 1.0 4.0 0.00 0.01 0.01 58 1006.4
20260509000017 65 292 1.0 4.0 0.00 0.01 0.01 58 1006.4
20260508235017 66 274 1.0 5.0 0.00 0.01 0.01 58 1006.4
20260508234018 66 286 2.0 5.0 0.00 0.02 0.01 57 1006.4
20260508233037 67 274 2.0 5.0 0.00 0.02 0.01 57 1006.5
20260508232038 68 270 2.0 5.0 0.00 0.02 0.01 57 1006.5
20260508231018 67 280 1.0 6.0 0.00 0.02 0.01 59 1006.5
20260508230018 67 284 2.0 5.0 0.00 0.02 0.01 59 1006.6
20260508225036 68 283 2.0 6.0 0.00 0.02 0.01 58 1006.6
20260508224036 67 295 2.0 6.0 0.00 0.02 0.01 58 1006.7
20260508223016 67 284 2.0 5.0 0.00 0.02 0.01 57 1006.7
20260508222016 67 294 3.0 6.0 0.00 0.02 0.01 58 1006.7
20260508221016 68 303 3.0 7.0 0.00 0.02 0.01 55 1006.7
20260508220016 68 292 4.0 8.0 0.00 0.02 0.01 54 1006.8
20260508215016 69 287 3.0 7.0 0.00 0.02 0.01 54 1006.7
20260508214017 69 283 2.0 6.0 0.00 0.02 0.01 55 1006.8
20260508213017 69 297 3.0 7.0 0.00 0.02 0.01 53 1006.8
20260508212017 69 297 3.0 9.0 0.00 0.02 0.01 53 1006.9
20260508211017 69 275 2.0 6.0 0.00 0.02 0.01 52 1007.0
20260508210017 69 271 1.0 4.0 0.00 0.02 0.01 55 1007.1
20260508205017 69 286 3.0 6.0 0.00 0.02 0.01 56 1007.1
20260508204017 68 309 0.0 2.0 0.00 0.02 0.01 59 1007.3
20260508203018 67 294 2.0 6.0 0.00 0.02 0.01 58 1007.3
20260508202018 67 271 1.0 4.0 0.00 0.02 0.01 57 1007.5
20260508201018 67 135 0.0 4.0 0.00 0.02 0.01 58 1007.7
20260508200018 66 290 1.0 4.0 0.00 0.02 0.01 58 1007.9
20260508195019 66 34 0.0 3.0 0.00 0.02 0.01 57 1008.0
20260508194016 67 289 1.0 3.0 0.00 0.02 0.01 58 1008.2
20260508193016 68 309 2.0 5.0 0.00 0.02 0.01 58 1008.2
20260508192016 67 280 1.0 4.0 0.00 0.02 0.01 59 1008.2
20260508191016 67 284 1.0 3.0 0.00 0.02 0.01 61 1008.3
20260508190018 66 295 1.0 5.0 0.00 0.02 0.01 61 1008.4
20260508185037 67 298 1.0 3.0 0.00 0.02 0.01 59 1008.6
20260508184017 67 273 1.0 5.0 0.00 0.02 0.01 57 1008.6
20260508183017 66 308 1.0 3.0 0.00 0.02 0.01 60 1008.8
20260508182037 66 282 2.0 5.0 0.00 0.02 0.01 60 1008.9
20260508181017 65 267 1.0 5.0 0.00 0.02 0.01 59 1009.0
20260508180017 65 290 1.0 3.0 0.00 0.02 0.01 60 1009.1
20260508175058 65 282 0.0 2.0 0.00 0.02 0.01 61 1009.2
20260508174018 65 298 0.0 4.0 0.00 0.02 0.01 62 1009.3
20260508173017 65 56 1.0 3.0 0.00 0.02 0.01 62 1009.5
20260508172018 64 299 1.0 5.0 0.00 0.02 0.01 63 1009.7
20260508171018 65 287 2.0 6.0 0.00 0.02 0.01 63 1009.8
20260508170018 64 137 1.0 5.0 0.00 0.02 0.01 66 1010.0
20260508165017 64 287 1.0 4.0 0.00 0.02 0.01 65 1010.1
20260508164016 64 286 0.0 2.0 0.00 0.02 0.01 66 1010.3
20260508163016 63 166 1.0 4.0 0.00 0.02 0.01 68 1010.5
20260508162016 63 294 1.0 3.0 0.00 0.02 0.01 67 1010.6
20260508161016 63 281 0.0 3.0 0.00 0.02 0.01 68 1010.5
20260508160016 62 190 1.0 4.0 0.00 0.02 0.01 68 1010.6
20260508155017 62 294 0.0 3.0 0.00 0.02 0.01 71 1010.7
20260508154037 62 276 1.0 4.0 0.00 0.02 0.01 71 1010.8
20260508153017 62 114 1.0 4.0 0.00 0.02 0.01 71 1010.8
20260508152037 62 316 0.0 3.0 0.00 0.02 0.01 71 1011.0
20260508151017 61 273 0.0 3.0 0.00 0.02 0.01 72 1010.9
20260508150018 62 298 1.0 3.0 0.00 0.02 0.01 71 1011.0
20260508145018 61 343 1.0 4.0 0.00 0.02 0.01 71 1011.1
20260508144018 61 339 1.0 3.0 0.00 0.02 0.01 72 1011.2
20260508143038 60 288 1.0 4.0 0.00 0.02 0.01 73 1011.1
20260508142018 59 312 1.0 5.0 0.00 0.02 0.01 77 1011.2
20260508141019 59 114 0.0 3.0 0.00 0.02 0.01 79 1011.2
20260508140015 58 154 0.0 3.0 0.00 0.02 0.01 80 1011.3
20260508135015 57 310 0.0 2.0 0.00 0.02 0.01 84 1011.3
20260508134016 57 296 1.0 3.0 0.00 0.02 0.01 85 1011.3
20260508133016 57 268 0.0 3.0 0.00 0.02 0.01 84 1011.4